GW4615 Weather Reports


time (UTC)temp
C
wind
direction
speed
KPH
gust
KPH
rain 1hr
cm
rain 24hr
cm
rain mn
cm
humidity
%
barometer
mb
20260504110403 7 156 1.6 1.6 0.00 0.00 0.00 72 1016.0
20260504100320 7 160 0.0 4.8 0.00 0.00 0.00 67 1015.7
20260504081714 7 219 0.0 1.6 0.00 0.00 0.00 66 1016.1
20260504081210 7 232 0.0 3.2 0.00 0.00 0.00 65 1016.4
20260504080707 7 260 1.6 4.8 0.00 0.00 0.00 66 1016.2
20260504080203 7 260 1.6 4.8 0.00 0.00 0.00 66 1016.2
20260504070131 7 127 0.0 1.6 0.00 0.00 0.00 68 1016.4
20260504050519 7 203 1.6 3.2 0.00 0.00 0.00 65 1017.0
20260504050017 7 218 1.6 1.6 0.00 0.00 0.00 67 1017.1
20260504045513 6 206 0.0 1.6 0.00 0.00 0.00 68 1017.0
20260504045009 6 208 0.0 0.0 0.00 0.00 0.00 69 1017.0
20260504044507 6 203 1.6 1.6 0.00 0.00 0.00 70 1017.1
20260504044004 6 235 1.6 1.6 0.00 0.00 0.00 70 1017.1
20260504043500 6 203 0.0 0.0 0.00 0.00 0.00 70 1017.1
20260504042958 6 191 0.0 1.6 0.00 0.00 0.00 69 1017.0
20260504042454 7 201 0.0 3.2 0.00 0.00 0.00 68 1017.0
20260504041951 7 190 0.0 0.0 0.00 0.00 0.00 69 1016.8
20260504041447 7 178 1.6 3.2 0.00 0.00 0.00 65 1017.0
20260504040943 7 229 0.0 3.2 0.00 0.00 0.00 62 1017.2
20260504040441 7 217 3.2 4.8 0.00 0.00 0.00 59 1017.2
20260504035937 7 221 1.6 4.8 0.00 0.00 0.00 59 1017.1
20260504035435 7 189 4.8 6.4 0.00 0.00 0.00 63 1017.0
20260504034931 6 206 1.6 4.8 0.00 0.00 0.00 66 1017.1
20260504034429 6 218 0.0 1.6 0.00 0.00 0.00 70 1017.1
20260504033925 6 201 0.0 0.0 0.00 0.00 0.00 68 1017.2
20260504033423 6 244 1.6 4.8 0.00 0.00 0.00 68 1017.1
20260504032920 6 202 0.0 0.0 0.00 0.00 0.00 71 1016.9
20260504032417 5 151 0.0 0.0 0.00 0.00 0.00 71 1017.3
20260504031914 5 153 0.0 0.0 0.00 0.00 0.00 71 1017.1
20260504031411 5 178 0.0 1.6 0.00 0.00 0.00 70 1017.1
20260504030907 5 238 0.0 0.0 0.00 0.00 0.00 70 1017.0
20260504030404 5 244 0.0 0.0 0.00 0.00 0.00 70 1017.1
20260504025900 5 238 0.0 0.0 0.00 0.00 0.00 70 1017.1
20260504025357 5 197 0.0 0.0 0.00 0.00 0.00 70 1017.2
20260504024854 5 212 0.0 0.0 0.00 0.00 0.00 70 1016.9
20260504024350 5 215 1.6 1.6 0.00 0.00 0.00 71 1017.1
20260504023847 5 196 1.6 3.2 0.00 0.00 0.00 71 1017.1
20260504023344 5 213 0.0 0.0 0.00 0.00 0.00 71 1017.1
20260504022839 5 231 0.0 0.0 0.00 0.00 0.00 67 1017.0
20260504022337 5 262 0.0 1.6 0.00 0.00 0.00 67 1016.9
20260504021833 5 227 1.6 1.6 0.00 0.00 0.00 68 1017.1
20260504021331 6 207 0.0 0.0 0.00 0.00 0.00 66 1017.1
20260504020828 6 243 1.6 1.6 0.00 0.00 0.00 65 1017.2
20260504020324 6 214 0.0 0.0 0.00 0.00 0.00 63 1017.0
20260504015820 6 210 0.0 3.2 0.00 0.00 0.00 62 1016.8
20260504015317 6 261 0.0 0.0 0.00 0.00 0.00 63 1016.6
20260504014814 6 223 0.0 0.0 0.00 0.00 0.00 63 1016.8
20260504014309 6 229 0.0 0.0 0.00 0.00 0.00 65 1016.5
20260504013807 7 207 0.0 0.0 0.00 0.00 0.00 63 1016.3
20260504013305 7 200 0.0 0.0 0.00 0.00 0.00 61 1016.3
20260504012800 7 263 1.6 3.2 0.00 0.00 0.00 57 1016.3
20260504012259 8 259 1.6 3.2 0.00 0.00 0.00 54 1015.9
20260504011755 8 201 1.6 4.8 0.00 0.00 0.00 53 1016.1
20260504011252 8 225 3.2 4.8 0.00 0.00 0.00 52 1016.1
20260504010748 8 249 1.6 3.2 0.00 0.00 0.00 55 1016.0
20260504010243 8 221 3.2 4.8 0.00 0.00 0.00 52 1015.8
20260504005741 9 286 3.2 6.4 0.00 0.00 0.00 50 1016.0
20260504005238 9 227 4.8 6.4 0.00 0.00 0.00 50 1015.9
20260504004736 10 260 0.0 3.2 0.00 0.00 0.00 46 1015.7
20260504004232 10 266 6.4 12.9 0.00 0.00 0.00 45 1015.8
20260504003729 10 232 3.2 9.7 0.00 0.00 0.00 44 1015.6
20260504003226 10 269 1.6 3.2 0.00 0.00 0.00 47 1015.7
20260504002723 10 264 1.6 3.2 0.00 0.00 0.00 46 1015.6
20260504002219 10 260 3.2 11.3 0.00 0.00 0.00 45 1015.7
20260504001718 11 253 6.4 11.3 0.00 0.00 0.00 43 1015.6
20260504001214 11 273 9.7 12.9 0.00 0.00 0.00 42 1015.7
20260504000711 11 284 1.6 1.6 0.00 0.00 0.00 45 1015.6
20260504000208 11 242 6.4 9.7 0.00 0.00 0.00 42 1015.7
20260503235706 11 268 4.8 6.4 0.00 0.00 0.00 43 1015.6
20260503235203 11 287 6.4 9.7 0.00 0.00 0.00 40 1015.6
20260503234700 11 260 3.2 4.8 0.00 0.00 0.00 45 1015.7
20260503234159 11 255 3.2 4.8 0.00 0.00 0.00 48 1015.4
20260503233655 11 253 3.2 3.2 0.00 0.00 0.00 50 1015.6
20260503233151 11 246 3.2 3.2 0.00 0.00 0.00 45 1015.6
20260503232648 11 278 3.2 3.2 0.00 0.00 0.00 46 1015.5
20260503232145 12 249 3.2 3.2 0.00 0.00 0.00 44 1015.5
20260503231643 12 247 3.2 4.8 0.00 0.00 0.00 39 1015.5
20260503231139 12 266 3.2 4.8 0.00 0.00 0.00 38 1015.6
20260503230636 12 244 3.2 3.2 0.00 0.00 0.00 43 1015.5
20260503230133 12 235 1.6 3.2 0.00 0.00 0.00 34 1015.4
20260503225631 12 236 3.2 3.2 0.00 0.00 0.00 36 1015.5
20260503225130 12 266 1.6 3.2 0.00 0.00 0.00 38 1015.3
20260503224628 12 243 3.2 4.8 0.00 0.00 0.00 33 1015.4
20260503224126 12 207 1.6 3.2 0.00 0.00 0.00 36 1015.3
20260503223624 12 246 3.2 3.2 0.00 0.00 0.00 35 1015.4
20260503223119 12 261 3.2 3.2 0.00 0.00 0.00 37 1015.3
20260503222617 12 301 3.2 3.2 0.00 0.00 0.00 36 1015.5
20260503222115 13 282 3.2 3.2 0.00 0.00 0.00 36 1015.4
20260503221613 14 130 0.0 1.6 0.00 0.00 0.00 34 1015.6
20260503221110 14 282 3.2 4.8 0.00 0.00 0.00 33 1015.5
20260503220607 14 60 8.0 9.7 0.00 0.00 0.00 28 1015.4
20260503220103 15 125 1.6 6.4 0.00 0.00 0.00 28 1015.4
20260503215600 17 167 6.4 9.7 0.00 0.00 0.00 25 1015.5
20260503215057 17 83 0.0 3.2 0.00 0.00 0.00 24 1015.4
20260503214555 18 232 6.4 9.7 0.00 0.00 0.00 25 1015.7
20260503214051 18 273 1.6 3.2 0.00 0.00 0.00 24 1015.5
20260503213550 17 239 0.0 3.2 0.00 0.00 0.00 25 1015.5
20260503213046 17 190 3.2 4.8 0.00 0.00 0.00 30 1015.5
20260503212544 16 220 6.4 9.7 0.00 0.00 0.00 28 1015.6
20260503212042 16 106 6.4 6.4 0.00 0.00 0.00 28 1015.6
20260503211538 17 278 8.0 11.3 0.00 0.00 0.00 24 1015.7
20260503211033 16 194 4.8 12.9 0.00 0.00 0.00 29 1015.5
20260503210531 16 22 4.8 11.3 0.00 0.00 0.00 28 1015.5
20260503210026 18 192 1.6 11.3 0.00 0.00 0.00 27 1015.6
20260503205523 16 94 3.2 3.2 0.00 0.00 0.00 30 1015.8
20260503205020 16 93 4.8 6.4 0.00 0.00 0.00 27 1015.9
20260503204517 16 149 6.4 11.3 0.00 0.00 0.00 31 1015.6
20260503204014 15 107 6.4 11.3 0.00 0.00 0.00 28 1015.9
20260503203511 16 161 3.2 16.1 0.00 0.00 0.00 30 1015.8
20260503203008 16 352 3.2 11.3 0.00 0.00 0.00 31 1016.0
20260503202506 16 40 4.8 14.5 0.00 0.00 0.00 29 1016.1
20260503202004 16 174 8.0 11.3 0.00 0.00 0.00 28 1016.2
20260503201501 16 62 6.4 9.7 0.00 0.00 0.00 31 1016.0
20260503200958 16 84 3.2 9.7 0.00 0.00 0.00 27 1016.2
20260503200455 16 17 3.2 9.7 0.00 0.00 0.00 27 1016.1
20260503195951 16 113 11.3 12.9 0.00 0.00 0.00 32 1016.4
20260503195449 15 51 12.9 14.5 0.00 0.00 0.00 28 1016.2
20260503194945 15 90 8.0 11.3 0.00 0.00 0.00 31 1016.8
20260503194442 15 14 8.0 9.7 0.00 0.00 0.00 30 1016.5
20260503193937 15 6 4.8 6.4 0.00 0.00 0.00 32 1016.5
20260503193433 15 63 9.7 11.3 0.00 0.00 0.00 30 1016.5
20260503192929 15 64 11.3 16.1 0.00 0.00 0.00 30 1016.4
20260503192427 15 75 3.2 9.7 0.00 0.00 0.00 29 1016.9
20260503191922 15 93 3.2 11.3 0.00 0.00 0.00 27 1016.9
20260503191420 15 30 9.7 14.5 0.00 0.00 0.00 29 1017.0
20260503190915 15 78 3.2 4.8 0.00 0.00 0.00 29 1017.2
20260503190413 15 65 4.8 11.3 0.00 0.00 0.00 29 1017.1
20260503185909 15 43 8.0 16.1 0.00 0.00 0.00 32 1017.2
20260503185406 14 31 14.5 16.1 0.00 0.00 0.00 30 1017.3
20260503184905 14 52 14.5 24.1 0.00 0.00 0.00 30 1017.4
20260503184402 15 36 6.4 9.7 0.00 0.00 0.00 31 1017.5
20260503183858 14 344 6.4 16.1 0.00 0.00 0.00 32 1017.4
20260503183355 15 137 19.3 27.4 0.00 0.00 0.00 27 1017.2
20260503182852 14 85 6.4 17.7 0.00 0.00 0.00 31 1017.2
20260503182351 14 46 11.3 14.5 0.00 0.00 0.00 32 1017.7
20260503181847 14 129 6.4 30.6 0.00 0.00 0.00 37 1017.3
20260503181345 15 80 9.7 11.3 0.00 0.00 0.00 35 1017.6
20260503180841 14 3 6.4 12.9 0.00 0.00 0.00 31 1017.6
20260503180339 14 21 6.4 12.9 0.00 0.00 0.00 32 1017.7
20260503175835 13 54 12.9 16.1 0.00 0.00 0.00 36 1017.4
20260503175334 13 297 4.8 20.9 0.00 0.00 0.00 28 1017.6
20260503174834 13 60 6.4 11.3 0.00 0.00 0.00 35 1017.6
20260503174333 13 33 8.0 20.9 0.00 0.00 0.00 35 1017.9
20260503173828 14 67 17.7 20.9 0.00 0.00 0.00 34 1017.6
20260503173324 13 20 6.4 9.7 0.00 0.00 0.00 34 1017.7
20260503172821 13 71 4.8 11.3 0.00 0.00 0.00 31 1017.9
20260503172319 13 66 17.7 25.7 0.00 0.00 0.00 32 1018.1
20260503171815 13 214 1.6 14.5 0.00 0.00 0.00 34 1017.9
20260503171312 13 84 9.7 12.9 0.00 0.00 0.00 35 1017.9
20260503170809 13 44 9.7 12.9 0.00 0.00 0.00 36 1018.0
20260503170306 13 70 6.4 11.3 0.00 0.00 0.00 33 1018.0
20260503150658 10 41 14.5 17.7 0.00 0.00 0.00 40 1019.1
20260503150154 10 103 6.4 14.5 0.00 0.00 0.00 43 1019.5
20260503140118 8 193 6.4 16.1 0.00 0.00 0.00 50 1019.4
20260503131048 8 84 4.8 11.3 0.00 0.00 0.00 55 1019.5
20260503130545 8 36 8.0 12.9 0.00 0.00 0.00 54 1019.4